Skip Page Navigation
NASA JPL Caltech
NASA Logo - Jet Propulsion Laboratory + View the NASA Portal
+ Near-Earth Object (NEO) Program
Search JPL
JPL Home Earth Solar System Stars & Galaxies Technology
JPL Solar System Dynamics
BODIES ORBITS EPHEMERIDES TOOLS PHYSICAL DATA DISCOVERY FAQ SITE MAP
JPL Small-Body Database Browser
Search: [ help ]  
15710 Bocklin (1989 AV6)
Classification: Main-belt Asteroid          SPK-ID: 2015710
Ephemeris | Orbit Diagram | Orbital Elements | Physical Parameters | Discovery Circumstances ]

[ show orbit diagram ]
Orbital Elements at Epoch 2457000.5 (2014-Dec-09.0) TDB
Reference: JPL 11 (heliocentric ecliptic J2000)
 Element Value Uncertainty (1-sigma)   Units 
e .1885643958516607 5.3078e-08  
a 2.24171329158436 1.4629e-08 AU
q 1.819005979084118 1.1606e-07 AU
i 7.002534117815821 5.4777e-06 deg
node 116.3104739769142 5.1687e-05 deg
peri 172.8411417494307 5.5311e-05 deg
M 101.6423944158325 2.1981e-05 deg
tp 2456654.368667993985
(2013-Dec-27.86866799)
7.3904e-05 JED
period 1225.938057031405
3.36
1.2e-05
3.285e-08
d
yr
n .2936526832944039 2.8744e-09 deg/d
Q 2.664420604084603 1.7387e-08 AU
  Orbit Determination Parameters
   # obs. used (total)      1242  
   data-arc span      11635 days (31.85 yr)  
   first obs. used      1983-05-06  
   last obs. used      2015-03-14  
   planetary ephem.      DE431  
   SB-pert. ephem.      SB431-BIG16  
   condition code      0  
   fit RMS      .48144  
   data source      ORB  
   producer      Otto Matic  
   solution date      2015-Apr-07 16:53:20  

Additional Information
 Earth MOID = .80422 AU 
 T_jup = 3.601 
[ show covariance matrix ]

Ephemeris | Orbit Diagram | Orbital Elements | Physical Parameters | Discovery Circumstances ]

Physical Parameter Table
Parameter Symbol Value Units Sigma Reference Notes
absolute magnitude H 13.7 mag n/a MPO319280  

15710 Böcklin           Discovered 1989 Jan. 11 by F. Borngen at Tautenburg.
Swiss painter Arnold Böcklin (1827-1901) created landscapes and figures in a richly colored monumental-pathetic style. Frequently, his subjects are from classical mythology and are animated by a grand imagination.
NOTE: some special characters may not display properly (any characters within {} are an attempt to place the proper accent above a character)
Reference: 20001013/MPCPages.arcLast Updated: 2013-03-29

Alternate Designations
 1989 AV6 = 1998 UJ6 
Ephemeris | Orbit Diagram | Orbital Elements | Physical Parameters | Discovery Circumstances ]
ABOUT SSD CREDITS/AWARDS PRIVACY/COPYRIGHT GLOSSARY LINKS
FirstGov 2015-Aug-02 14:19 UT
(server date/time)  
NASA Home Page
Site Manager:   Ryan S. Park
Webmaster  Alan B. Chamberlin